ST 1

导读 | 星芒AI

ST 1 卫星是由日本宇宙航空研究开发机构(JAXA)研发的实验性卫星,主要用于测试新型卫星技术和推进系统。该卫星搭载了离子引擎和太阳能帆板,旨在验证高效能推进和能源系统。ST 1 于2003年发射,是日本在先进卫星技术领域的重要里程碑。

基本信息
目录编号:
25460
目录名称:
ST 1
国际标识:
1998-049A
轨道中心:
EARTH
卫星名称:
ST 1
卫星全名:
--
卫星状态:
在轨 (已飞行9931 天)
发射日期:
1998-08-25 UTC
国别 :
(STCT)
星等 :
--
轨道信息
数据来源 国际轨道数据 AOE轨道数据
星历时间 2025-11-02T10:45:52+0800
20小时前
查看轨道信息
2025-11-02T11:00:00+0800
20小时前
查看轨道信息
半长轴 42596.928km 42596.526km
偏心率 0.0006907 0.0006962
轨道倾角 10.592° 10.592°
近地点辐角 289.135° 287.295°
升交点赤经 47.314° 47.314°
平近点角 94.178° 99.515°
近地点 36189.371km 36188.735km
远地点 36248.215km 36248.047km
周期 1458.234分钟 1458.213分钟
每日圈数 0.987496 0.98751
详细信息
使用方式:
暂无
2D轨道图
3D轨道图
轨道高度分析图
轨道倾角分析图
轨道综合分析图
查看轨道综合分析图